| time (UTC) | temp F | wind direction | speed MPH | gust MPH | rain 1hr in | rain 24hr in | rain mn in | humidity % | barometer mb |
| 20260506012523 | 61 | 224 | 0.0 | 0.0 | 0.02 | 0.07 | 0.07 | 63 | 1006.8 |
| 20260506012024 | 61 | 226 | 0.0 | 0.0 | 0.02 | 0.07 | 0.07 | 63 | 1006.8 |
| 20260506011526 | 61 | 222 | 0.0 | 0.0 | 0.02 | 0.07 | 0.07 | 63 | 1006.7 |
| 20260506011023 | 62 | 186 | 0.0 | 0.0 | 0.02 | 0.07 | 0.07 | 63 | 1006.6 |
| 20260506010523 | 62 | 219 | 0.0 | 0.0 | 0.02 | 0.07 | 0.07 | 63 | 1006.5 |
| 20260506010028 | 62 | 206 | 0.0 | 0.0 | 0.01 | 0.06 | 0.06 | 63 | 1006.7 |
| 20260506005523 | 61 | 265 | 0.0 | 0.0 | 0.01 | 0.06 | 0.06 | 63 | 1006.6 |
| 20260506005022 | 61 | 307 | 0.0 | 0.0 | 0.01 | 0.06 | 0.06 | 63 | 1006.4 |
| 20260506004525 | 61 | 307 | 0.0 | 0.0 | 0.00 | 0.05 | 0.05 | 63 | 1006.3 |
| 20260506004025 | 61 | 307 | 0.0 | 0.0 | 0.00 | 0.05 | 0.05 | 63 | 1006.3 |
| 20260506003525 | 62 | 307 | 0.0 | 0.0 | 0.00 | 0.05 | 0.05 | 63 | 1006.2 |
| 20260506003021 | 62 | 307 | 0.0 | 0.0 | 0.00 | 0.05 | 0.05 | 63 | 1006.3 |
| 20260506002521 | 62 | 307 | 0.0 | 0.0 | 0.01 | 0.05 | 0.05 | 62 | 1006.2 |
| 20260506002022 | 62 | 307 | 0.0 | 0.0 | 0.01 | 0.05 | 0.05 | 62 | 1006.1 |
| 20260506001521 | 62 | 307 | 0.0 | 0.0 | 0.02 | 0.05 | 0.05 | 62 | 1006.2 |
| 20260506001021 | 62 | 307 | 0.0 | 0.0 | 0.02 | 0.05 | 0.05 | 62 | 1006.1 |
| 20260506000520 | 62 | 307 | 0.0 | 0.0 | 0.02 | 0.05 | 0.05 | 62 | 1006.1 |
| 20260506000034 | 62 | 307 | 0.0 | 0.0 | 0.02 | 0.05 | 0.05 | 62 | 1006.2 |
| 20260505235520 | 62 | 275 | 0.0 | 0.0 | 0.02 | 0.05 | 0.05 | 62 | 1006.4 |
| 20260505235020 | 62 | 275 | 0.0 | 0.0 | 0.03 | 0.05 | 0.05 | 62 | 1006.2 |
| 20260505234521 | 62 | 275 | 0.0 | 0.0 | 0.04 | 0.05 | 0.05 | 62 | 1006.3 |
| 20260505234018 | 62 | 275 | 0.0 | 0.0 | 0.04 | 0.05 | 0.05 | 62 | 1006.3 |
| 20260505233519 | 62 | 275 | 0.0 | 0.0 | 0.04 | 0.05 | 0.05 | 62 | 1006.2 |
| 20260505233018 | 62 | 275 | 0.0 | 0.0 | 0.04 | 0.05 | 0.05 | 62 | 1006.2 |
| 20260505232520 | 62 | 275 | 0.0 | 0.0 | 0.03 | 0.04 | 0.04 | 62 | 1006.2 |
| 20260505232019 | 62 | 275 | 0.0 | 0.0 | 0.03 | 0.04 | 0.04 | 62 | 1006.2 |
| 20260505231519 | 62 | 275 | 0.0 | 0.0 | 0.02 | 0.03 | 0.03 | 62 | 1006.4 |
| 20260505231018 | 62 | 275 | 0.0 | 0.0 | 0.02 | 0.03 | 0.03 | 63 | 1006.6 |
| 20260505230517 | 64 | 246 | 0.0 | 0.0 | 0.02 | 0.03 | 0.03 | 62 | 1006.4 |
| 20260505230030 | 65 | 237 | 0.0 | 0.0 | 0.02 | 0.03 | 0.03 | 58 | 1006.2 |
| 20260505225518 | 65 | 238 | 0.0 | 0.0 | 0.02 | 0.03 | 0.03 | 58 | 1006.2 |
| 20260505225018 | 65 | 238 | 0.0 | 0.0 | 0.01 | 0.02 | 0.02 | 57 | 1006.5 |
| 20260505224517 | 65 | 238 | 0.0 | 0.0 | 0.00 | 0.01 | 0.01 | 57 | 1006.6 |
| 20260505224015 | 66 | 238 | 0.0 | 0.0 | 0.00 | 0.01 | 0.01 | 56 | 1006.5 |
| 20260505223516 | 66 | 209 | 0.0 | 0.0 | 0.01 | 0.01 | 0.01 | 55 | 1006.4 |
| 20260505223015 | 67 | 229 | 0.0 | 0.0 | 0.01 | 0.01 | 0.01 | 53 | 1006.5 |
| 20260505222518 | 67 | 208 | 0.0 | 0.0 | 0.01 | 0.01 | 0.01 | 52 | 1006.4 |
| 20260505222016 | 67 | 207 | 0.0 | 0.0 | 0.01 | 0.01 | 0.01 | 51 | 1006.2 |
| 20260505221515 | 67 | 203 | 0.0 | 0.0 | 0.01 | 0.01 | 0.01 | 51 | 1006.1 |
| 20260505221015 | 67 | 186 | 0.0 | 0.0 | 0.01 | 0.01 | 0.01 | 50 | 1006.4 |
| 20260505220516 | 68 | 217 | 0.0 | 0.0 | 0.01 | 0.01 | 0.01 | 49 | 1006.3 |
| 20260505220014 | 68 | 223 | 0.0 | 0.0 | 0.01 | 0.01 | 0.01 | 49 | 1006.1 |
| 20260505215518 | 68 | 191 | 0.0 | 0.0 | 0.01 | 0.01 | 0.01 | 47 | 1006.2 |
| 20260505215014 | 69 | 187 | 0.0 | 0.0 | 0.01 | 0.01 | 0.01 | 45 | 1006.3 |
| 20260505214514 | 69 | 194 | 0.0 | 0.0 | 0.01 | 0.01 | 0.01 | 45 | 1006.2 |
| 20260505214014 | 69 | 234 | 0.0 | 0.0 | 0.01 | 0.01 | 0.01 | 46 | 1006.1 |
| 20260505213512 | 69 | 215 | 0.0 | 0.0 | 0.00 | 0.00 | 0.00 | 46 | 1006.0 |
| 20260505213013 | 69 | 194 | 0.0 | 0.0 | 0.00 | 0.00 | 0.00 | 48 | 1006.3 |
| 20260505212511 | 69 | 219 | 0.0 | 1.0 | 0.00 | 0.00 | 0.00 | 49 | 1006.2 |
| 20260505212010 | 69 | 156 | 0.0 | 1.0 | 0.00 | 0.00 | 0.00 | 49 | 1006.1 |
| 20260505211515 | 69 | 188 | 0.0 | 0.0 | 0.00 | 0.00 | 0.00 | 49 | 1006.3 |
| 20260505211009 | 69 | 179 | 0.0 | 0.0 | 0.00 | 0.00 | 0.00 | 48 | 1006.3 |
| 20260505210508 | 69 | 178 | 0.0 | 0.0 | 0.00 | 0.00 | 0.00 | 49 | 1006.5 |
| 20260505210008 | 69 | 175 | 0.0 | 0.0 | 0.00 | 0.00 | 0.00 | 49 | 1006.5 |
| 20260505205513 | 69 | 205 | 0.0 | 0.0 | 0.00 | 0.00 | 0.00 | 49 | 1006.6 |
| 20260505205006 | 69 | 188 | 0.0 | 0.0 | 0.00 | 0.00 | 0.00 | 49 | 1006.6 |
| 20260505204506 | 68 | 178 | 0.0 | 1.0 | 0.00 | 0.00 | 0.00 | 49 | 1006.7 |
| 20260505204003 | 68 | 187 | 0.0 | 0.0 | 0.00 | 0.00 | 0.00 | 49 | 1006.8 |
| 20260505203503 | 68 | 192 | 0.0 | 0.0 | 0.00 | 0.00 | 0.00 | 50 | 1006.9 |
| 20260505203003 | 68 | 187 | 0.0 | 0.0 | 0.00 | 0.00 | 0.00 | 53 | 1007.0 |
| 20260505202500 | 67 | 200 | 0.0 | 0.0 | 0.00 | 0.00 | 0.00 | 54 | 1007.1 |
| 20260505202102 | 67 | 221 | 0.0 | 0.0 | 0.00 | 0.00 | 0.00 | 54 | 1007.2 |
| 20260505201601 | 67 | 200 | 0.0 | 0.0 | 0.00 | 0.00 | 0.00 | 55 | 1007.3 |
| 20260505201500 | 67 | 196 | 0.0 | 0.0 | 0.00 | 0.00 | 0.00 | 54 | 1007.3 |
| 20260505201100 | 67 | 195 | 0.0 | 0.0 | 0.00 | 0.00 | 0.00 | 55 | 1007.4 |
| 20260505200600 | 67 | 212 | 0.0 | 0.0 | 0.00 | 0.00 | 0.00 | 55 | 1007.4 |
| 20260505200100 | 67 | 210 | 0.0 | 0.0 | 0.00 | 0.00 | 0.00 | 56 | 1007.4 |
| 20260505195559 | 67 | 210 | 0.0 | 0.0 | 0.00 | 0.00 | 0.00 | 56 | 1007.5 |
| 20260505195059 | 67 | 198 | 0.0 | 0.0 | 0.00 | 0.00 | 0.00 | 56 | 1007.6 |
| 20260505194559 | 67 | 205 | 0.0 | 0.0 | 0.00 | 0.00 | 0.00 | 57 | 1007.8 |
| 20260505194058 | 67 | 217 | 0.0 | 0.0 | 0.00 | 0.00 | 0.00 | 56 | 1007.8 |
| 20260505193558 | 67 | 208 | 0.0 | 0.0 | 0.00 | 0.00 | 0.00 | 57 | 1008.0 |
| 20260505193100 | 67 | 225 | 0.0 | 0.0 | 0.00 | 0.00 | 0.00 | 57 | 1008.0 |
| 20260505192600 | 67 | 232 | 0.0 | 0.0 | 0.00 | 0.00 | 0.00 | 57 | 1008.1 |
| 20260505192058 | 67 | 202 | 0.0 | 0.0 | 0.00 | 0.00 | 0.00 | 58 | 1008.1 |
| 20260505191604 | 66 | 228 | 0.0 | 0.0 | 0.00 | 0.00 | 0.00 | 59 | 1008.2 |
| 20260505191058 | 66 | 219 | 0.0 | 0.0 | 0.00 | 0.00 | 0.00 | 59 | 1008.3 |
| 20260505190601 | 65 | 202 | 0.0 | 0.0 | 0.00 | 0.00 | 0.00 | 60 | 1008.4 |
| 20260505190109 | 65 | 224 | 0.0 | 0.0 | 0.00 | 0.00 | 0.00 | 61 | 1008.4 |
| 20260505185557 | 65 | 216 | 0.0 | 1.0 | 0.00 | 0.00 | 0.00 | 60 | 1008.3 |
| 20260505185056 | 65 | 205 | 0.0 | 0.0 | 0.00 | 0.00 | 0.00 | 60 | 1008.4 |
| 20260505184556 | 65 | 215 | 0.0 | 0.0 | 0.00 | 0.00 | 0.00 | 60 | 1008.5 |
| 20260505184056 | 65 | 229 | 0.0 | 0.0 | 0.00 | 0.00 | 0.00 | 60 | 1008.5 |
| 20260505183554 | 65 | 196 | 0.0 | 0.0 | 0.00 | 0.00 | 0.00 | 60 | 1008.5 |
| 20260505183055 | 66 | 240 | 0.0 | 0.0 | 0.00 | 0.00 | 0.00 | 59 | 1008.6 |
| 20260505182554 | 66 | 221 | 0.0 | 0.0 | 0.00 | 0.00 | 0.00 | 58 | 1008.5 |
| 20260505182054 | 66 | 215 | 0.0 | 0.0 | 0.00 | 0.00 | 0.00 | 58 | 1008.6 |
| 20260505181636 | 65 | 238 | 0.0 | 0.0 | 0.00 | 0.00 | 0.00 | 58 | 1008.8 |
| 20260505181056 | 65 | 225 | 0.0 | 0.0 | 0.00 | 0.00 | 0.00 | 59 | 1008.8 |
| 20260505180554 | 65 | 235 | 0.0 | 0.0 | 0.00 | 0.00 | 0.00 | 58 | 1008.8 |
| 20260505175553 | 66 | 237 | 0.0 | 0.0 | 0.00 | 0.00 | 0.00 | 56 | 1008.8 |
| 20260505175053 | 67 | 261 | 0.0 | 0.0 | 0.00 | 0.00 | 0.00 | 54 | 1008.8 |
| 20260505174553 | 67 | 217 | 0.0 | 0.0 | 0.00 | 0.00 | 0.00 | 54 | 1008.9 |
| 20260505174053 | 67 | 246 | 0.0 | 0.0 | 0.00 | 0.00 | 0.00 | 54 | 1009.0 |
| 20260505173552 | 67 | 217 | 0.0 | 0.0 | 0.00 | 0.00 | 0.00 | 54 | 1009.0 |
| 20260505173052 | 67 | 225 | 0.0 | 0.0 | 0.00 | 0.00 | 0.00 | 53 | 1008.8 |
| 20260505172552 | 67 | 216 | 0.0 | 0.0 | 0.00 | 0.00 | 0.00 | 53 | 1008.9 |
| 20260505172052 | 67 | 230 | 0.0 | 0.0 | 0.00 | 0.00 | 0.00 | 53 | 1009.0 |
| 20260505171600 | 67 | 245 | 0.0 | 0.0 | 0.00 | 0.00 | 0.00 | 53 | 1009.0 |
| 20260505171053 | 67 | 211 | 0.0 | 0.0 | 0.00 | 0.00 | 0.00 | 53 | 1008.9 |
| 20260505170553 | 67 | 210 | 0.0 | 7.0 | 0.00 | 0.00 | 0.00 | 52 | 1009.0 |
| 20260505170052 | 67 | 231 | 0.0 | 15.0 | 0.00 | 0.00 | 0.00 | 53 | 1009.0 |
| 20260505165551 | 67 | 229 | 4.0 | 15.0 | 0.00 | 0.00 | 0.00 | 53 | 1008.9 |
| 20260505165050 | 67 | 212 | 7.0 | 15.0 | 0.00 | 0.00 | 0.00 | 52 | 1008.9 |
| 20260505164551 | 67 | 201 | 5.0 | 15.0 | 0.00 | 0.00 | 0.00 | 52 | 1008.8 |
| 20260505164049 | 67 | 190 | 9.0 | 17.0 | 0.00 | 0.00 | 0.00 | 52 | 1008.8 |
| 20260505163550 | 67 | 206 | 7.0 | 17.0 | 0.00 | 0.00 | 0.00 | 52 | 1008.9 |
| 20260505163049 | 67 | 219 | 7.0 | 15.0 | 0.00 | 0.00 | 0.00 | 52 | 1009.0 |
| 20260505162548 | 66 | 180 | 5.0 | 18.0 | 0.00 | 0.00 | 0.00 | 53 | 1009.3 |
| 20260505162048 | 66 | 225 | 11.0 | 18.0 | 0.00 | 0.00 | 0.00 | 52 | 1009.3 |
| 20260505161550 | 66 | 184 | 13.0 | 18.0 | 0.00 | 0.00 | 0.00 | 52 | 1009.4 |
| 20260505161048 | 66 | 176 | 9.0 | 18.0 | 0.00 | 0.00 | 0.00 | 53 | 1009.5 |
| 20260505160548 | 66 | 196 | 6.0 | 18.0 | 0.00 | 0.00 | 0.00 | 53 | 1009.6 |
| 20260505153046 | 66 | 236 | 6.0 | 17.0 | 0.00 | 0.01 | 0.00 | 52 | 1009.5 |
| 20260505152544 | 65 | 212 | 10.0 | 17.0 | 0.00 | 0.01 | 0.00 | 52 | 1009.4 |
| 20260505152044 | 65 | 224 | 10.0 | 18.0 | 0.00 | 0.01 | 0.00 | 51 | 1009.4 |
| 20260505151544 | 66 | 210 | 0.0 | 0.0 | 0.00 | 0.01 | 0.00 | 51 | 1009.4 |
| 20260505151044 | 66 | 214 | 0.0 | 0.0 | 0.00 | 0.01 | 0.00 | 51 | 1009.4 |
| 20260505150543 | 65 | 196 | 0.0 | 0.0 | 0.00 | 0.01 | 0.00 | 51 | 1009.4 |
| 20260505140542 | 64 | 202 | 0.0 | 0.0 | 0.00 | 0.01 | 0.00 | 53 | 1009.3 |
| 20260505125037 | 62 | 175 | 0.0 | 0.0 | 0.00 | 0.01 | 0.00 | 53 | 1009.4 |
| 20260505124537 | 62 | 177 | 0.0 | 0.0 | 0.00 | 0.01 | 0.00 | 53 | 1009.4 |
| 20260505124040 | 62 | 175 | 0.0 | 0.0 | 0.00 | 0.01 | 0.00 | 53 | 1009.4 |
| 20260505123541 | 61 | 173 | 0.0 | 0.0 | 0.00 | 0.01 | 0.00 | 53 | 1009.4 |
| 20260505123047 | 61 | 173 | 0.0 | 0.0 | 0.00 | 0.01 | 0.00 | 54 | 1009.5 |
| 20260505122536 | 61 | 189 | 0.0 | 0.0 | 0.00 | 0.01 | 0.00 | 53 | 1009.5 |
| 20260505122036 | 61 | 189 | 0.0 | 0.0 | 0.00 | 0.01 | 0.00 | 54 | 1009.5 |
| 20260505121536 | 61 | 194 | 0.0 | 0.0 | 0.00 | 0.01 | 0.00 | 54 | 1009.4 |
| 20260505121036 | 61 | 194 | 0.0 | 0.0 | 0.00 | 0.01 | 0.00 | 54 | 1009.4 |
| 20260505120539 | 61 | 194 | 0.0 | 0.0 | 0.00 | 0.01 | 0.00 | 54 | 1009.4 |
| 20260505120051 | 60 | 194 | 0.0 | 0.0 | 0.00 | 0.01 | 0.00 | 54 | 1009.6 |
| 20260505115534 | 60 | 194 | 0.0 | 0.0 | 0.00 | 0.01 | 0.00 | 55 | 1009.5 |
| 20260505115034 | 60 | 194 | 0.0 | 0.0 | 0.00 | 0.01 | 0.00 | 54 | 1009.4 |
| 20260505114534 | 60 | 194 | 0.0 | 1.0 | 0.00 | 0.01 | 0.00 | 54 | 1009.4 |
| 20260505114033 | 60 | 194 | 0.0 | 1.0 | 0.00 | 0.01 | 0.00 | 55 | 1009.3 |
| 20260505113539 | 60 | 194 | 0.0 | 0.0 | 0.00 | 0.01 | 0.00 | 55 | 1009.4 |
| 20260505113034 | 60 | 194 | 0.0 | 0.0 | 0.00 | 0.01 | 0.00 | 56 | 1009.2 |
| 20260505112533 | 60 | 194 | 0.0 | 1.0 | 0.00 | 0.01 | 0.00 | 55 | 1009.1 |
| 20260505112033 | 60 | 194 | 0.0 | 1.0 | 0.00 | 0.01 | 0.00 | 56 | 1009.2 |
| 20260505111536 | 60 | 340 | 0.0 | 0.0 | 0.00 | 0.01 | 0.00 | 56 | 1009.2 |
| 20260505111033 | 60 | 340 | 0.0 | 0.0 | 0.00 | 0.01 | 0.00 | 56 | 1009.3 |
| 20260505110530 | 60 | 340 | 0.0 | 0.0 | 0.00 | 0.01 | 0.00 | 55 | 1009.2 |
| 20260505102029 | 61 | 186 | 0.0 | 0.0 | 0.00 | 0.01 | 0.00 | 51 | 1009.1 |
| 20260505101525 | 61 | 226 | 0.0 | 0.0 | 0.00 | 0.01 | 0.00 | 51 | 1009.0 |
| 20260505101023 | 61 | 207 | 0.0 | 0.0 | 0.00 | 0.01 | 0.00 | 51 | 1008.8 |
| 20260505100522 | 61 | 227 | 0.0 | 0.0 | 0.00 | 0.01 | 0.00 | 51 | 1008.8 |
| 20260505100024 | 61 | 220 | 0.0 | 0.0 | 0.00 | 0.01 | 0.00 | 51 | 1008.7 |
| 20260505095523 | 61 | 220 | 0.0 | 0.0 | 0.00 | 0.01 | 0.00 | 51 | 1008.4 |
| 20260505095020 | 61 | 215 | 0.0 | 0.0 | 0.00 | 0.01 | 0.00 | 51 | 1008.5 |
| 20260505094520 | 61 | 193 | 0.0 | 0.0 | 0.00 | 0.01 | 0.00 | 51 | 1008.5 |
| 20260505094021 | 61 | 211 | 0.0 | 0.0 | 0.00 | 0.01 | 0.00 | 51 | 1008.4 |
| 20260505093519 | 61 | 202 | 0.0 | 0.0 | 0.00 | 0.01 | 0.00 | 51 | 1008.4 |
| 20260505093019 | 61 | 208 | 0.0 | 0.0 | 0.00 | 0.01 | 0.00 | 51 | 1008.3 |
| 20260505092519 | 62 | 200 | 0.0 | 0.0 | 0.00 | 0.01 | 0.00 | 50 | 1008.3 |
| 20260505092017 | 62 | 215 | 0.0 | 0.0 | 0.00 | 0.01 | 0.00 | 50 | 1008.3 |
| 20260505091516 | 62 | 218 | 0.0 | 0.0 | 0.00 | 0.01 | 0.00 | 50 | 1008.3 |
| 20260505091014 | 62 | 231 | 0.0 | 0.0 | 0.00 | 0.01 | 0.00 | 49 | 1008.3 |
| 20260505090514 | 62 | 214 | 0.0 | 0.0 | 0.00 | 0.01 | 0.00 | 49 | 1008.4 |
| 20260505090013 | 63 | 198 | 0.0 | 0.0 | 0.00 | 0.01 | 0.00 | 49 | 1008.3 |
| 20260505085513 | 63 | 193 | 0.0 | 0.0 | 0.00 | 0.01 | 0.00 | 49 | 1008.3 |
| 20260505085013 | 63 | 223 | 0.0 | 0.0 | 0.00 | 0.01 | 0.00 | 49 | 1008.2 |
| 20260505084512 | 63 | 223 | 0.0 | 0.0 | 0.00 | 0.01 | 0.00 | 48 | 1008.1 |
| 20260505084011 | 63 | 231 | 0.0 | 0.0 | 0.00 | 0.01 | 0.00 | 48 | 1008.2 |
| 20260505083514 | 63 | 219 | 0.0 | 0.0 | 0.00 | 0.01 | 0.00 | 48 | 1008.1 |
| 20260505083011 | 63 | 213 | 0.0 | 0.0 | 0.00 | 0.01 | 0.00 | 48 | 1008.1 |
| 20260505082512 | 64 | 221 | 0.0 | 0.0 | 0.00 | 0.01 | 0.00 | 47 | 1008.1 |
| 20260505082010 | 64 | 217 | 0.0 | 0.0 | 0.00 | 0.01 | 0.00 | 47 | 1008.1 |
| 20260505081510 | 64 | 220 | 0.0 | 0.0 | 0.00 | 0.01 | 0.00 | 46 | 1008.2 |
| 20260505081007 | 64 | 205 | 0.0 | 0.0 | 0.00 | 0.01 | 0.00 | 46 | 1008.3 |
| 20260505080510 | 64 | 219 | 0.0 | 0.0 | 0.00 | 0.01 | 0.00 | 45 | 1008.3 |
| 20260505080006 | 65 | 227 | 0.0 | 0.0 | 0.00 | 0.01 | 0.00 | 45 | 1008.3 |
| 20260505075504 | 65 | 231 | 0.0 | 0.0 | 0.00 | 0.01 | 0.00 | 45 | 1008.2 |
| 20260505075006 | 65 | 229 | 0.0 | 0.0 | 0.00 | 0.01 | 0.00 | 44 | 1008.2 |
| 20260505074504 | 65 | 223 | 0.0 | 0.0 | 0.00 | 0.01 | 0.00 | 44 | 1008.2 |
| 20260505074003 | 65 | 192 | 0.0 | 0.0 | 0.00 | 0.01 | 0.00 | 44 | 1008.1 |
| 20260505073505 | 65 | 200 | 0.0 | 0.0 | 0.00 | 0.01 | 0.00 | 44 | 1008.0 |
| 20260505073003 | 65 | 219 | 0.0 | 0.0 | 0.00 | 0.01 | 0.00 | 44 | 1007.9 |
| 20260505072501 | 65 | 199 | 0.0 | 0.0 | 0.00 | 0.01 | 0.00 | 44 | 1007.9 |
| 20260505072001 | 66 | 219 | 0.0 | 0.0 | 0.00 | 0.01 | 0.00 | 43 | 1008.0 |
| 20260505071501 | 66 | 229 | 0.0 | 7.0 | 0.00 | 0.01 | 0.00 | 43 | 1007.9 |
| 20260505071100 | 65 | 222 | 0.0 | 12.0 | 0.00 | 0.01 | 0.00 | 43 | 1008.0 |
| 20260505070600 | 66 | 236 | 6.0 | 17.0 | 0.00 | 0.01 | 0.00 | 43 | 1007.9 |
| 20260505070107 | 66 | 221 | 9.0 | 17.0 | 0.00 | 0.01 | 0.00 | 43 | 1007.7 |
| 20260505065559 | 66 | 236 | 5.0 | 17.0 | 0.00 | 0.17 | 0.00 | 43 | 1007.6 |
| 20260505065058 | 66 | 218 | 5.0 | 17.0 | 0.00 | 0.17 | 0.00 | 43 | 1007.7 |
| 20260505064644 | 66 | 243 | 6.0 | 10.0 | 0.00 | 0.17 | 0.00 | 43 | 1007.8 |
| 20260505064159 | 66 | 231 | 4.0 | 7.0 | 0.00 | 0.17 | 0.00 | 43 | 1007.8 |
| 20260505063556 | 66 | 219 | 0.0 | 0.0 | 0.00 | 0.17 | 0.00 | 43 | 1007.7 |
| 20260505063100 | 66 | 207 | 0.0 | 0.0 | 0.00 | 0.17 | 0.00 | 43 | 1007.7 |
| 20260505062556 | 66 | 217 | 0.0 | 0.0 | 0.00 | 0.17 | 0.00 | 43 | 1007.7 |
| 20260505062056 | 66 | 197 | 0.0 | 0.0 | 0.00 | 0.17 | 0.00 | 43 | 1007.6 |
| 20260505061555 | 66 | 200 | 0.0 | 0.0 | 0.00 | 0.17 | 0.00 | 44 | 1007.6 |
| 20260505061055 | 66 | 233 | 0.0 | 0.0 | 0.00 | 0.17 | 0.00 | 43 | 1007.6 |
| 20260505060557 | 66 | 198 | 0.0 | 0.0 | 0.00 | 0.17 | 0.00 | 44 | 1007.5 |
| 20260505060054 | 66 | 198 | 0.0 | 0.0 | 0.00 | 0.17 | 0.00 | 44 | 1007.4 |
| 20260505055553 | 66 | 206 | 0.0 | 0.0 | 0.00 | 0.17 | 0.00 | 44 | 1007.6 |
| 20260505055053 | 66 | 195 | 0.0 | 0.0 | 0.00 | 0.17 | 0.00 | 44 | 1007.6 |
| 20260505054553 | 66 | 204 | 0.0 | 0.0 | 0.00 | 0.17 | 0.00 | 44 | 1007.7 |
| 20260505054152 | 66 | 208 | 0.0 | 0.0 | 0.00 | 0.17 | 0.00 | 44 | 1007.8 |
| 20260505053552 | 66 | 194 | 0.0 | 0.0 | 0.00 | 0.17 | 0.00 | 44 | 1007.8 |
| 20260505053051 | 66 | 200 | 0.0 | 1.0 | 0.00 | 0.17 | 0.00 | 44 | 1007.8 |
| 20260505052551 | 66 | 199 | 0.0 | 0.0 | 0.00 | 0.17 | 0.00 | 44 | 1007.8 |
| 20260505052051 | 66 | 206 | 0.0 | 0.0 | 0.00 | 0.17 | 0.00 | 43 | 1007.8 |
| 20260505051550 | 66 | 204 | 0.0 | 0.0 | 0.00 | 0.17 | 0.00 | 43 | 1007.8 |
| 20260505051051 | 66 | 198 | 0.0 | 0.0 | 0.00 | 0.17 | 0.00 | 43 | 1007.9 |
| 20260505050548 | 66 | 217 | 0.0 | 0.0 | 0.00 | 0.17 | 0.00 | 43 | 1008.0 |
| 20260505041543 | 68 | 181 | 0.0 | 0.0 | 0.00 | 0.17 | 0.00 | 40 | 1008.0 |
| 20260505041143 | 68 | 192 | 0.0 | 0.0 | 0.00 | 0.17 | 0.00 | 40 | 1008.0 |
| 20260505040543 | 68 | 195 | 0.0 | 0.0 | 0.00 | 0.17 | 0.00 | 40 | 1008.0 |
| 20260505040042 | 68 | 210 | 0.0 | 0.0 | 0.00 | 0.17 | 0.00 | 39 | 1008.0 |
| 20260505035540 | 68 | 211 | 0.0 | 0.0 | 0.00 | 0.17 | 0.17 | 39 | 1008.0 |
| 20260505035040 | 69 | 219 | 0.0 | 0.0 | 0.00 | 0.17 | 0.17 | 39 | 1008.0 |
| 20260505034556 | 69 | 228 | 0.0 | 0.0 | 0.00 | 0.17 | 0.17 | 39 | 1008.0 |
| 20260505034040 | 69 | 227 | 0.0 | 0.0 | 0.00 | 0.17 | 0.17 | 38 | 1007.9 |
| 20260505033540 | 69 | 257 | 0.0 | 0.0 | 0.00 | 0.17 | 0.17 | 38 | 1008.0 |
| 20260505033042 | 69 | 233 | 0.0 | 0.0 | 0.00 | 0.17 | 0.17 | 38 | 1007.9 |
| 20260505032540 | 69 | 221 | 0.0 | 0.0 | 0.00 | 0.17 | 0.17 | 38 | 1008.0 |
| 20260505032039 | 69 | 227 | 0.0 | 0.0 | 0.00 | 0.17 | 0.17 | 37 | 1007.9 |
| 20260505031539 | 70 | 228 | 0.0 | 0.0 | 0.00 | 0.17 | 0.17 | 37 | 1007.9 |
| 20260505031038 | 70 | 199 | 0.0 | 0.0 | 0.00 | 0.17 | 0.17 | 37 | 1007.8 |
| 20260505030541 | 70 | 227 | 0.0 | 0.0 | 0.00 | 0.17 | 0.17 | 37 | 1007.7 |
| 20260505030046 | 70 | 210 | 0.0 | 0.0 | 0.00 | 0.17 | 0.17 | 37 | 1007.6 |
| 20260505025538 | 70 | 215 | 0.0 | 0.0 | 0.00 | 0.17 | 0.17 | 37 | 1007.4 |
| 20260505025038 | 70 | 221 | 0.0 | 0.0 | 0.00 | 0.17 | 0.17 | 37 | 1007.4 |
| 20260505024537 | 70 | 236 | 0.0 | 0.0 | 0.00 | 0.17 | 0.17 | 37 | 1007.3 |
| 20260505024037 | 70 | 242 | 0.0 | 0.0 | 0.00 | 0.17 | 0.17 | 38 | 1007.2 |
| 20260505023537 | 70 | 223 | 0.0 | 0.0 | 0.00 | 0.17 | 0.17 | 37 | 1007.2 |
| 20260505023043 | 70 | 194 | 0.0 | 0.0 | 0.00 | 0.17 | 0.17 | 37 | 1007.0 |
| 20260505022537 | 70 | 233 | 0.0 | 6.0 | 0.00 | 0.17 | 0.17 | 37 | 1007.0 |
| 20260505022037 | 70 | 219 | 0.0 | 6.0 | 0.00 | 0.17 | 0.17 | 37 | 1006.9 |
| 20260505021537 | 70 | 219 | 0.0 | 0.0 | 0.00 | 0.17 | 0.17 | 37 | 1006.9 |
| 20260505021035 | 70 | 213 | 0.0 | 0.0 | 0.00 | 0.17 | 0.17 | 37 | 1006.8 |
| 20260505020536 | 71 | 219 | 0.0 | 0.0 | 0.00 | 0.17 | 0.17 | 36 | 1006.7 |
| 20260505020047 | 71 | 232 | 0.0 | 0.0 | 0.00 | 0.17 | 0.17 | 36 | 1006.8 |
| 20260505015535 | 71 | 210 | 0.0 | 0.0 | 0.00 | 0.17 | 0.17 | 36 | 1006.6 |
| 20260505015035 | 71 | 195 | 0.0 | 0.0 | 0.00 | 0.17 | 0.17 | 36 | 1006.5 |
| 20260505014540 | 71 | 216 | 0.0 | 0.0 | 0.00 | 0.17 | 0.17 | 36 | 1006.3 |
| 20260505014036 | 71 | 216 | 0.0 | 6.0 | 0.00 | 0.17 | 0.17 | 36 | 1006.2 |
| 20260505013536 | 71 | 212 | 1.0 | 7.0 | 0.00 | 0.17 | 0.17 | 36 | 1006.0 |
| 20260505013039 | 71 | 216 | 4.0 | 7.0 | 0.00 | 0.17 | 0.17 | 36 | 1005.8 |